User: anonymous   Login
Location: Casalecchio di Reno
(44.4760°N, 11.2757°E)
Time: 13:35:58
(UTC+02:00)
Language:

AO-73 - Orbit

View from above orbital plane
View from above orbital plane
View from above satellite
View from above satellite

Ground track
Ground track

The orbit data is extracted from the following two-line orbital elements,

1 39444U 13066AE  24169.88367692  .00005806  00000-0  56301-3 0  9998
2 39444  97.7185 128.9616 0049388 137.2077 223.3003 14.92129098570803
Epoch (UTC): 17 June 2024 21:12:29
Eccentricity: 0.0049388
inclination: 97.7185°
perigee height: 557 km
apogee height: 626 km
right ascension of ascending node: 128.9616°
argument of perigee: 137.2077°
revolutions per day: 14.92129098
mean anomaly at epoch: 223.3003°
orbit number at epoch: 57080

The dashed part of the orbit path shows where the satellite is in the earth's shadow,  

DLR